Location: Caltech
(34.1382°N, 118.1253°W)
Time: 05:08:21
(UTC-08:00)

Iridium 75 - Visible Passes

Search period start: 31 January 2015 00:00
Search period end: 10 February 2015 00:00
Orbit: 776 x 779 km, 86.4° (Epoch: 30 January)

Date Brightness Start Highest point End Pass type
(mag) Time Alt. Az. Time Alt. Az. Time Alt. Az.
31 Jan 8.3 05:31:23 10° SE 05:35:36 26° E 05:39:56 10° NNE visible
31 Jan 6.0 17:44:44 10° N 17:49:54 63° E 17:55:04 10° SSE visible
31 Jan 9.2 19:28:16 10° WNW 19:30:08 12° W 19:31:39 10° W visible
01 Feb 9.1 04:59:57 10° ESE 05:02:16 14° E 05:04:56 10° NE visible
01 Feb 8.5 18:52:45 10° NNW 18:56:50 23° W 19:00:46 10° SW visible
02 Feb 6.3 06:03:51 10° S 06:09:02 77° E 06:14:16 10° N visible
02 Feb 7.3 18:18:31 10° NNW 18:23:28 44° W 18:28:21 10° SSW visible
03 Feb 7.5 05:30:50 10° SSE 05:35:36 39° E 05:40:27 10° NNE visible
03 Feb 6.1 17:44:46 10° N 17:50:01 86° W 17:55:13 10° S visible
04 Feb 8.7 04:58:35 10° SE 05:02:14 20° E 05:06:06 10° NE visible
04 Feb 9.0 18:53:44 10° NW 18:56:48 15° W 18:59:38 10° WSW visible
05 Feb 6.0 06:03:57 10° S 06:09:08 72° W 06:14:21 10° N visible
05 Feb 8.2 18:18:58 10° NNW 18:23:29 29° W 18:27:53 10° SW visible
06 Feb 6.7 05:30:33 10° SSE 05:35:38 59° E 05:40:47 10° N visible
06 Feb 6.9 17:44:57 10° N 17:50:05 58° W 17:55:09 10° SSW visible
07 Feb 8.0 04:57:48 10° SE 05:02:15 30° E 05:06:47 10° NNE visible
08 Feb 8.9 04:26:01 10° ESE 04:28:54 16° E 04:32:03 10° NE visible
08 Feb 6.3 06:04:16 10° SSW 06:09:16 47° W 06:14:17 10° N visible
08 Feb 8.9 18:19:40 10° NW 18:23:28 20° W 18:27:05 10° SW visible
09 Feb 6.0 05:30:30 10° S 05:35:43 88° E 05:40:57 10° N visible
